Weather History for Whidbey Island, WA

Change the Weather History Date:

Friday, May 3, 2013

  Actual Average Record
Temperature  
Mean Temperature 51 °F -  
Max Temperature 60 °F 55 °F 60 °F (2000)
Min Temperature 43 °F 41 °F 37 °F (2006)
Degree Days  
Heating Degree Days 14    
Growing Degree Days 1 (Base 50)    
Moisture  
Dew Point 45 °F    
Average Humidity 77    
Maximum Humidity 93    
Minimum Humidity 64    
Precipitation  
Precipitation 0.00 in - - ()
Sea Level Pressure  
Sea Level Pressure 30.37 in    
Wind  
Wind Speed 6 mph (West)    
Max Wind Speed 13 mph    
Max Gust Speed -    
Visibility 10 miles    
Events      
Averages and records for this station are not official NWS values.
T = Trace of Precipitation, MM = Missing Value Source: NWS Daily Summary

Daily Weather History Graph

Daily Weather History Graph

Search for Another Location

Airport:

Trip Planner

Search our weather history database for the weather conditions in past years. The results will help you decide how hot, cold, wet, or windy it might be!

Date:

Astronomy

May. 03, 2013 Rise Set
Actual Time 5:47 AM PDT 8:28 PM PDT
Civil Twilight 5:12 AM PDT 9:03 PM PDT
Nautical Twilight 4:27 AM PDT 9:49 PM PDT
Astronomical Twilight 3:34 AM PDT 10:42 PM PDT
Moon 2:45 AM PDT (5/3) 2:00 PM PDT (5/3)
Length of Visible Light 15h 51m
Length of Day
14h 40m
Waning Crescent, 36% of the Moon is Illuminated
May 3
Waning Crescent
May 9
New
May 17
First Quarter
May 24
Full
May 31
Last Quarter

Hourly Weather History & Observations

Time (PDT) Temp. Windchill Dew Point Humidity Pressure Visibility Wind Dir Wind Speed Gust Speed Precip Events Conditions
12:56 AM 46.9 °F - 42.1 °F 83% 30.43 in 10.0 mi West 6.9 mph - N/A   Clear
1:56 AM 46.9 °F - 41.0 °F 80% 30.43 in 10.0 mi Calm Calm - N/A   Clear
2:56 AM 48.0 °F - 43.0 °F 83% 30.42 in 10.0 mi West 3.5 mph - N/A   Clear
3:56 AM 46.9 °F - 44.1 °F 90% 30.43 in 10.0 mi NNW 3.5 mph - N/A   Clear
4:56 AM 43.0 °F 40.3 °F 41.0 °F 93% 30.43 in 10.0 mi WSW 4.6 mph - N/A   Scattered Clouds
5:56 AM 43.0 °F - 41.0 °F 93% 30.43 in 10.0 mi Calm Calm - N/A   Partly Cloudy
6:56 AM 48.9 °F - 44.1 °F 83% 30.42 in 10.0 mi Calm Calm - N/A   Scattered Clouds
7:56 AM 51.1 °F - 46.9 °F 86% 30.43 in 10.0 mi WNW 10.4 mph - N/A   Scattered Clouds
8:56 AM 54.0 °F - 46.9 °F 77% 30.43 in 10.0 mi NW 12.7 mph - N/A   Scattered Clouds
9:56 AM 55.0 °F - 46.9 °F 74% 30.43 in 10.0 mi NW 12.7 mph - N/A   Scattered Clouds
10:56 AM 55.9 °F - 46.9 °F 72% 30.41 in 10.0 mi NW 10.4 mph - N/A   Partly Cloudy
11:56 AM 57.9 °F - 46.9 °F 67% 30.40 in 10.0 mi NW 10.4 mph - N/A   Partly Cloudy
12:56 PM 57.9 °F - 46.9 °F 67% 30.39 in 10.0 mi WNW 10.4 mph - N/A   Scattered Clouds
1:56 PM 59.0 °F - 46.9 °F 64% 30.37 in 10.0 mi WNW 6.9 mph - N/A   Partly Cloudy
2:56 PM 57.9 °F - 46.9 °F 67% 30.35 in 10.0 mi WSW 8.1 mph - N/A   Scattered Clouds
3:56 PM 57.9 °F - 48.0 °F 70% 30.34 in 10.0 mi West 6.9 mph - N/A   Scattered Clouds
4:56 PM 57.9 °F - 46.9 °F 67% 30.32 in 10.0 mi WSW 8.1 mph - N/A   Scattered Clouds
5:56 PM 59.0 °F - 46.9 °F 64% 30.30 in 10.0 mi West 4.6 mph - N/A   Partly Cloudy
6:56 PM 57.0 °F - 46.0 °F 67% 30.29 in 10.0 mi West 4.6 mph - N/A   Partly Cloudy
7:56 PM 53.1 °F - 46.0 °F 77% 30.28 in 10.0 mi West 5.8 mph - N/A   Scattered Clouds
8:56 PM 51.1 °F - 46.0 °F 83% 30.27 in 10.0 mi WSW 5.8 mph - N/A   Scattered Clouds
9:56 PM 51.1 °F - 45.0 °F 80% 30.28 in 10.0 mi WNW 4.6 mph - N/A   Partly Cloudy
10:56 PM 50.0 °F - 46.0 °F 86% 30.29 in 10.0 mi Calm Calm - N/A   Clear
11:56 PM 48.9 °F - 45.0 °F 86% 30.28 in 10.0 mi WSW 4.6 mph - N/A   Clear